Lexington Weather

Lexington, Massachusetts, USA

73°F
9/22/2021 1:50pm 
  • Lexington Conditions: Overcast
  • Temperature: 73.0°F / 22.8°CColder 2.0°F than last hour.
  • Dew Point: 68.5°FIncreased 0.5°Fsince last hour.
  • Relative Humidity: 86%Increased 7.0% since last hour.
  • Wind: Wind from SE SE 2 mph, 10-min avg: 3 mph, gust: 12 mph
  • Barometer: 30.10 in Steady
  • Visibility: 10 miles
  • Rain Today: 0.00 in
  •   

Regional Weather Roundup
for Boston / Norton, MA

        
000
ASUS41 KBOX 171204
RWRBOX

REGIONAL WEATHER ROUNDUP
NATIONAL WEATHER SERVICE BOSTON/NORTON MA
800 AM EDT FRI SEP 17 2021

NOTE:  "FAIR" INDICATES FEW OR NO CLOUDS BELOW 12,000 FEET WITH NO 
SIGNIFICANT WEATHER AND/OR OBSTRUCTIONS TO VISIBILITY.

MAZALL-171300-
EASTERN MASSACHUSETTS
  
CITY           SKY/WX    TMP DP  RH WIND       PRES   REMARKS
BOSTON         CLOUDY    67  63  87 N10       30.34S                  
6HR MIN TEMP:  65; 6HR MAX TEMP:  67;                                

BEVERLY        CLOUDY    63  61  93 N8        30.35S                  
LAWRENCE       CLOUDY    62  60  93 NE6       30.39R                  
BEDFORD        CLOUDY    62  61  96 N8        30.35R FOG              
BLUE HILL      NOT AVBL                                               
NORWOOD        CLOUDY    67  63  87 NE9       30.33S                  
MARSHFIELD     CLOUDY    66  64  94 NE8       30.33R                  
PLYMOUTH       FOG       66  65  96 NE7       30.32S VSB 1            
TAUNTON        CLOUDY    66  65  96 VRB3      30.32R FOG              
NEW BEDFORD    CLOUDY    68  67  96 NE7       30.30R                  
$$

MAZALL-171300-
CAPE COD AND THE ISLANDS
  
CITY           SKY/WX    TMP DP  RH WIND       PRES   REMARKS
FALMOUTH       PTSUNNY   68  68 100 NE9       30.31R                  
HYANNIS        CLOUDY    69  69 100 NE5       30.29S                  
CHATHAM        PTSUNNY   68  66  93 E8        30.32R                  
PROVINCETOWN   CLOUDY    66  65  96 E10       30.33S                  
NANTUCKET      CLOUDY    71  67  87 E12G30    30.28S                  
MARTHAS VNYRD  LGT RAIN  70  69  97 E14       30.29S FOG              
$$
 
MAZALL-171300-
CENTRAL AND WESTERN MASSACHUSETTS
  
CITY           SKY/WX    TMP DP  RH WIND       PRES   REMARKS
WORCESTER      FOG       59  58  96 N8        30.36R VSB<1/4          
6HR MIN TEMP:  59; 6HR MAX TEMP:  61;                                

FITCHBURG      CLOUDY    60  58  92 N6        30.38R                  
ORANGE         CLOUDY    62  58  86 N3        30.37R                  
SPRINGFIELD    CLOUDY    64  60  85 NE7       30.33R                  
WESTFIELD      CLOUDY    65  62  90 N8        30.34R                  
NORTH ADAMS    CLOUDY    66  60  81 E8        30.34R                  
PITTSFIELD     CLOUDY    62  60  93 NE6       30.34R                  
$$
 
RIZALL-171300-
RHODE ISLAND
  
CITY           SKY/WX    TMP DP  RH WIND       PRES   REMARKS
PROVIDENCE     CLOUDY    67  65  93 NE8       30.32R FOG              
6HR MIN TEMP:  66; 6HR MAX TEMP:  67; 6HR PCP: TRACE;                

NEWPORT        CLOUDY    67  66  97 N8        30.30R                  
BLOCK ISLAND   CLOUDY    67  66  97 NE9       30.29S                  
SMITHFIELD     CLOUDY    63  63 100 NE8       30.33S FOG              
WESTERLY       CLOUDY    64  64 100 N7        30.29R                  
$$
 
CTZALL-171300-
CONNECTICUT
  
CITY           SKY/WX    TMP DP  RH WIND       PRES   REMARKS
BRADLEY INTL   CLOUDY    65  61  87 N9        30.32S                  
6HR MIN TEMP:  64; 6HR MAX TEMP:  65;                                

HARTFORD       CLOUDY    67  61  81 N7        30.31R                  
BRIDGEPORT     CLOUDY    68  65  90 NE8       30.29R                  
DANBURY        CLOUDY    66  64  94 NE9       30.31R FOG              
GROTON         CLOUDY    68  65  90 NE10      30.28R                  
NEW HAVEN      CLOUDY    69  66  90 N8        30.29R                  
CHESTER        CLOUDY    66  64  94 VRB7      30.30R                  
MERIDEN        CLOUDY    66  61  84 VRB5      30.31R                  
WILLIMANTIC    CLOUDY    65  62  90 NE6       30.32R                  
OXFORD         CLOUDY    63  63 100 NE13      30.32R FOG              
$$

MEZ002-015-021-024-NHZ003-005-008-011-012-014-VTZ005-008-171300-
NORTHERN NEW ENGLAND
  
CITY           SKY/WX    TMP DP  RH WIND       PRES   REMARKS
PORTLAND ME    CLOUDY    57  55  93 N5        30.40S                  
6HR MIN TEMP:  53; 6HR MAX TEMP:  57;                                

BANGOR ME      PTSUNNY   53  53 100 CALM      30.42R                  
CONCORD NH     CLOUDY    58  56  93 NW5       30.38S                  
MANCHESTER NH  CLOUDY    61  56  83 NE6       30.36R                  
NASHUA NH      CLOUDY    60  60 100 NE5       30.38R                  
PORTSMOUTH NH  PTSUNNY   61  57  87 N8        30.38R                  
JAFFREY NH     CLOUDY    59  59 100 CALM      30.38R                  
KEENE NH       CLOUDY    61  58  90 N5        30.37R                  
BURLINGTON VT  PTSUNNY   66  61  84 SE5       30.30S                  
MT. WASHINGTON NOT AVBL                                               
$$

NYZ052-076-171300-
EASTERN NEW YORK
  
CITY           SKY/WX    TMP DP  RH WIND       PRES   REMARKS
ALBANY         CLOUDY    63  63 100 NW5       30.32R                  
6HR MIN TEMP:  61; 6HR MAX TEMP:  64;                                

NEW YORK CITY  CLOUDY    71  66  84 NE13      30.26R                  
6HR MIN TEMP:  70; 6HR MAX TEMP:  73;                                

$$
 
ANZALL-171300-
MARINE OBSERVATIONS
  
STATION/POSITION TIME  TEMP    WIND        PRES    VSBY  WAVE
                       AIR SEA DIR/SP/G                  HT/PER
                 (UTC) (F)     (DEG/KT/KT) (MB)    (MI)  (FT/S)
BOSTON BUOY      1140      67   20/ 12/ 14 1027.6R
BUZZARDS BAY     1100           50/ 14/ 15 1026.5R
NANTUCKET SOUND  1140   70 72   60/ 14/ 17 1025.7R
MASS BAY-STELLWA 1104   65      40/ 12/ 14 1027.0R  1 7/8  2/ 4
ISLE OF SHOALS   1100   61      20/ 18/ 19 1027.4R
S OF BLOCK IS    1126      69                N/A           4/ 6
$$

......................KEY.........................
  SKY/WX - SKY CONDITION/PRESENT WEATHER
  TMP    - TEMPERATURE IN FAHRENHEIT
  DWPT   - DEWPOINT IN FAHRENHEIT
  RH     - RELATIVE HUMIDITY IN PERCENT
  WIND   - DIRECTION AND SPEED IN MPH
  PRES   - MEAN SEA LEVEL PRESSURE IN INCHES OF HG
  WCI    - WIND CHILL INDEX
  VSB    - VISIBILITY IN MILES
  HX     - HEAT INDEX
  TC     - TEMPERATURE IN CELSIUS
  VRB    - VARIABLE WIND DIRECTION
  N/A    - NOT AVAILABLE
  
      

Other recent Regional Weather Roundups

Wed Sep 22, 1:04pm

Wed Sep 22, 12:05pm

Wed Sep 22, 11:04am

Wed Sep 22, 10:04am

Wed Sep 22, 9:04am

Wed Sep 22, 8:04am

Wed Sep 22, 7:04am

Wed Sep 22, 6:04am

Wed Sep 22, 5:04am

Wed Sep 22, 4:04am

Wed Sep 22, 3:04am

Wed Sep 22, 2:04am

Wed Sep 22, 1:04am

Wed Sep 22, 12:04am

Tue Sep 21, 11:04pm

Tue Sep 21, 10:04pm

Tue Sep 21, 9:04pm

Tue Sep 21, 8:04pm

Tue Sep 21, 7:04pm

Tue Sep 21, 6:04pm

Tue Sep 21, 5:04pm

Tue Sep 21, 4:04pm

Tue Sep 21, 3:04pm

Tue Sep 21, 2:04pm

Tue Sep 21, 1:04pm

Tue Sep 21, 12:04pm

Tue Sep 21, 11:04am

Tue Sep 21, 10:04am

Tue Sep 21, 9:04am

Tue Sep 21, 8:04am

Tue Sep 21, 7:04am

Tue Sep 21, 6:04am

Tue Sep 21, 5:04am

Tue Sep 21, 4:04am

Tue Sep 21, 3:04am

Tue Sep 21, 2:04am

Tue Sep 21, 1:04am

Tue Sep 21, 12:04am

Mon Sep 20, 11:04pm

Mon Sep 20, 10:04pm

Mon Sep 20, 9:04pm

Mon Sep 20, 8:04pm

Mon Sep 20, 7:04pm

Mon Sep 20, 6:04pm

Mon Sep 20, 5:04pm

Mon Sep 20, 4:04pm

Mon Sep 20, 3:04pm

Mon Sep 20, 2:04pm

Mon Sep 20, 1:04pm

Mon Sep 20, 12:04pm

Mon Sep 20, 11:04am

Mon Sep 20, 10:04am

Mon Sep 20, 9:04am

Mon Sep 20, 7:04am

Mon Sep 20, 6:04am

Mon Sep 20, 5:04am

Mon Sep 20, 4:04am

Mon Sep 20, 3:04am

Mon Sep 20, 2:04am

Mon Sep 20, 1:04am

Mon Sep 20, 12:04am

Sun Sep 19, 11:04pm

Sun Sep 19, 10:04pm

Sun Sep 19, 9:04pm

Sun Sep 19, 8:04pm

Sun Sep 19, 7:04pm

Sun Sep 19, 6:04pm

Sun Sep 19, 5:04pm

Sun Sep 19, 4:04pm

Sun Sep 19, 3:04pm

Sun Sep 19, 2:05pm

Sun Sep 19, 1:04pm

Sun Sep 19, 12:04pm

Sun Sep 19, 11:04am

Sun Sep 19, 10:05am

Sun Sep 19, 9:04am

Sun Sep 19, 8:04am

Sun Sep 19, 7:04am

Sun Sep 19, 6:04am

Sun Sep 19, 5:04am

Sun Sep 19, 4:04am

Sun Sep 19, 3:04am

Sun Sep 19, 2:04am

Sun Sep 19, 1:04am

Sun Sep 19, 12:04am

Sat Sep 18, 11:05pm

Sat Sep 18, 10:04pm

Sat Sep 18, 9:04pm

Sat Sep 18, 8:04pm

Sat Sep 18, 7:04pm

Sat Sep 18, 6:04pm

Sat Sep 18, 5:04pm

Sat Sep 18, 4:04pm

Sat Sep 18, 3:04pm

Sat Sep 18, 2:04pm

Sat Sep 18, 1:04pm

Sat Sep 18, 12:04pm

Sat Sep 18, 11:04am

Sat Sep 18, 10:04am

Sat Sep 18, 9:04am

Sat Sep 18, 8:04am

Sat Sep 18, 7:04am

Sat Sep 18, 6:04am

Sat Sep 18, 5:04am

Sat Sep 18, 4:04am

Sat Sep 18, 3:04am

Sat Sep 18, 2:04am

Sat Sep 18, 1:04am

Sat Sep 18, 12:04am

Fri Sep 17, 11:04pm

Fri Sep 17, 10:04pm

Fri Sep 17, 9:04pm

Fri Sep 17, 8:04pm

Fri Sep 17, 7:04pm

Fri Sep 17, 6:04pm

Fri Sep 17, 5:04pm

Fri Sep 17, 4:04pm

Fri Sep 17, 3:04pm

Fri Sep 17, 2:04pm

Fri Sep 17, 1:04pm

Fri Sep 17, 12:05pm

Fri Sep 17, 11:04am

Fri Sep 17, 10:04am

Fri Sep 17, 9:04am

Fri Sep 17, 7:04am

Fri Sep 17, 6:04am

Fri Sep 17, 5:04am

Fri Sep 17, 4:04am

Fri Sep 17, 3:04am

Fri Sep 17, 2:04am

Fri Sep 17, 1:04am

Fri Sep 17, 12:04am

Thu Sep 16, 11:04pm

Thu Sep 16, 10:04pm

Thu Sep 16, 9:04pm

Thu Sep 16, 8:04pm

Thu Sep 16, 7:04pm

Thu Sep 16, 6:04pm

Thu Sep 16, 5:04pm

Thu Sep 16, 4:04pm

Thu Sep 16, 3:04pm

Thu Sep 16, 2:04pm

Thu Sep 16, 1:05pm

Thu Sep 16, 12:04pm

Thu Sep 16, 11:05am

Thu Sep 16, 10:05am

Thu Sep 16, 9:04am

Thu Sep 16, 8:04am

Thu Sep 16, 7:04am

Thu Sep 16, 6:04am

Thu Sep 16, 5:04am

Thu Sep 16, 4:04am

Thu Sep 16, 3:04am

Thu Sep 16, 2:04am

Thu Sep 16, 1:04am

Thu Sep 16, 12:04am

Wed Sep 15, 11:04pm

Wed Sep 15, 10:04pm

Wed Sep 15, 9:04pm

Wed Sep 15, 8:04pm

Wed Sep 15, 7:04pm

Wed Sep 15, 6:04pm

Wed Sep 15, 5:05pm

Wed Sep 15, 4:04pm

Wed Sep 15, 3:04pm

Wed Sep 15, 2:04pm

Meta data:

ID: 02064be8-be91-4c0c-828e-475d4e9bb71e
Link: https://api.weather.gov/products/02064be8-be91-4c0c-828e-475d4e9bb71e